Weather History for Waterville, ME

Change the Weather History Date:

Saturday, September 21, 2013

  Actual Average Record
Temperature  
Mean Temperature 58 °F -  
Max Temperature 66 °F 70 °F 91 °F (1978)
Min Temperature 51 °F 46 °F 30 °F (1962)
Degree Days  
Heating Degree Days 6    
Growing Degree Days 8 (Base 50)    
Moisture  
Dew Point 55 °F    
Average Humidity 84    
Maximum Humidity 100    
Minimum Humidity 64    
Precipitation  
Precipitation 0.00 in - - ()
Sea Level Pressure  
Sea Level Pressure 29.87 in    
Wind  
Wind Speed 6 mph (South)    
Max Wind Speed 13 mph    
Max Gust Speed 25 mph    
Visibility 7 miles    
Events      
Averages and records for this station are not official NWS values.
T = Trace of Precipitation, MM = Missing Value Source: NWS Daily Summary

Daily Weather History Graph

Daily Weather History Graph

Search for Another Location

Airport:

Trip Planner

Search our weather history database for the weather conditions in past years. The results will help you decide how hot, cold, wet, or windy it might be!

Date:

Astronomy

Sep. 21, 2013 Rise Set
Actual Time 6:24 AM EDT 6:37 PM EDT
Civil Twilight 5:55 AM EDT 7:06 PM EDT
Nautical Twilight 5:21 AM EDT 7:40 PM EDT
Astronomical Twilight 4:46 AM EDT 8:15 PM EDT
Moon 7:38 PM EDT (9/21) 8:47 AM EDT (9/21)
Length of Visible Light 13h 10m
Length of Day
12h 12m
Waning Gibbous, 94% of the Moon is Illuminated
Sep 21
Waning Gibbous
Sep 26
Last Quarter
Oct 4
New
Oct 11
First Quarter
Oct 18
Full

Hourly Weather History & Observations

Time (EDT) Temp. Dew Point Humidity Pressure Visibility Wind Dir Wind Speed Gust Speed Precip Events Conditions
12:15 AM 51.8 °F 50.0 °F 94% 29.99 in 10.0 mi SSW 3.5 mph - N/A   Clear
12:35 AM 51.8 °F 50.0 °F 94% 29.99 in 10.0 mi SSW 4.6 mph - N/A   Clear
12:55 AM 51.8 °F 50.0 °F 94% 29.99 in 10.0 mi SSW 5.8 mph - N/A   Partly Cloudy
1:15 AM 51.8 °F 50.0 °F 94% 29.99 in 0.8 mi SSW 5.8 mph - N/A   Overcast
1:35 AM 51.8 °F 51.8 °F 100% 29.99 in 0.2 mi SSW 4.6 mph - N/A   Overcast
1:55 AM 53.6 °F 51.8 °F 94% 29.99 in 0.5 mi SSW 3.5 mph - N/A   Overcast
2:15 AM 53.6 °F 51.8 °F 94% 29.98 in 0.5 mi Calm Calm - N/A   Overcast
2:35 AM 53.6 °F 51.8 °F 94% 29.97 in 0.8 mi Calm Calm - N/A   Overcast
2:55 AM 53.6 °F 51.8 °F 94% 29.97 in 0.8 mi Calm Calm - N/A   Overcast
3:15 AM 53.6 °F 51.8 °F 94% 29.97 in 1.5 mi Calm Calm - N/A   Overcast
3:35 AM 53.6 °F 51.8 °F 94% 29.97 in 1.5 mi Calm Calm - N/A   Overcast
3:55 AM 53.6 °F 51.8 °F 94% 29.97 in 2.5 mi South 4.6 mph - N/A   Overcast
4:15 AM 53.6 °F 53.6 °F 100% 29.97 in 2.0 mi SSW 3.5 mph - N/A   Overcast
4:35 AM 53.6 °F 51.8 °F 94% 29.97 in 0.8 mi Calm Calm - N/A   Overcast
4:55 AM 53.6 °F 53.6 °F 100% 29.97 in 0.5 mi SSW 3.5 mph - N/A   Overcast
5:15 AM 53.6 °F 53.6 °F 100% 29.96 in 0.5 mi South 3.5 mph - N/A   Overcast
5:35 AM 53.6 °F 53.6 °F 100% 29.96 in 0.2 mi Calm Calm - N/A   Overcast
5:55 AM 55.4 °F 53.6 °F 94% 29.95 in 0.2 mi Calm Calm - N/A   Overcast
6:15 AM 55.4 °F 53.6 °F 94% 29.94 in 0.5 mi SSE 3.5 mph - N/A   Overcast
6:35 AM 55.4 °F 53.6 °F 94% 29.94 in 0.2 mi South 4.6 mph - N/A   Overcast
6:56 AM 55.4 °F 53.6 °F 94% 29.94 in 0.5 mi South 3.5 mph - N/A   Overcast
7:15 AM 55.4 °F 53.6 °F 94% 29.93 in 0.5 mi South 4.6 mph - N/A   Overcast
7:35 AM 55.4 °F 55.4 °F 100% 29.93 in 1.0 mi SSW 5.8 mph - N/A   Overcast
7:55 AM 55.4 °F 55.4 °F 100% 29.93 in 2.0 mi SSW 5.8 mph - N/A   Overcast
8:15 AM 57.2 °F 55.4 °F 94% 29.94 in 4.0 mi SSW 5.8 mph - N/A   Overcast
8:35 AM 57.2 °F 55.4 °F 94% 29.94 in 8.0 mi SSW 5.8 mph - N/A   Overcast
8:55 AM 57.2 °F 55.4 °F 94% 29.94 in 10.0 mi SSW 6.9 mph - N/A   Overcast
9:15 AM 59.0 °F 55.4 °F 88% 29.94 in 10.0 mi SSW 9.2 mph - N/A   Overcast
9:35 AM 60.8 °F 55.4 °F 82% 29.94 in 10.0 mi South 6.9 mph - N/A   Overcast
9:55 AM 60.8 °F 53.6 °F 77% 29.94 in 10.0 mi South 6.9 mph - N/A   Mostly Cloudy
10:15 AM 62.6 °F 53.6 °F 72% 29.93 in 10.0 mi South 4.6 mph - N/A   Clear
10:35 AM 64.4 °F 53.6 °F 68% 29.92 in 10.0 mi SSW 8.1 mph - N/A   Clear
10:55 AM 64.4 °F 51.8 °F 64% 29.91 in 10.0 mi SSE 8.1 mph - N/A   Clear
11:15 AM 64.4 °F 53.6 °F 68% 29.91 in 10.0 mi South 11.5 mph 20.7 mph N/A   Clear
11:35 AM 64.4 °F 53.6 °F 68% 29.90 in 10.0 mi SSW 11.5 mph 17.3 mph N/A   Clear
11:55 AM 64.4 °F 53.6 °F 68% 29.89 in 10.0 mi South 8.1 mph 16.1 mph N/A   Scattered Clouds
12:15 PM 64.4 °F 53.6 °F 68% 29.89 in 10.0 mi South 9.2 mph 23.0 mph N/A   Scattered Clouds
12:35 PM 64.4 °F 53.6 °F 68% 29.88 in 10.0 mi SSW 11.5 mph 17.3 mph N/A   Mostly Cloudy
12:55 PM 64.4 °F 53.6 °F 68% 29.87 in 10.0 mi SSW 8.1 mph 19.6 mph N/A   Mostly Cloudy
1:15 PM 66.2 °F 53.6 °F 64% 29.86 in 10.0 mi SSW 11.5 mph 20.7 mph N/A   Mostly Cloudy
1:35 PM 66.2 °F 53.6 °F 64% 29.85 in 10.0 mi South 10.4 mph 19.6 mph N/A   Mostly Cloudy
1:55 PM 66.2 °F 53.6 °F 64% 29.85 in 10.0 mi South 9.2 mph 20.7 mph N/A   Mostly Cloudy
2:15 PM 66.2 °F 53.6 °F 64% 29.85 in 10.0 mi SSW 12.7 mph 23.0 mph N/A   Mostly Cloudy
2:35 PM 66.2 °F 53.6 °F 64% 29.84 in 10.0 mi South 12.7 mph 24.2 mph N/A   Scattered Clouds
2:55 PM 66.2 °F 55.4 °F 68% 29.83 in 10.0 mi SSW 12.7 mph 25.3 mph N/A   Scattered Clouds
3:16 PM 66.2 °F 53.6 °F 64% 29.83 in 10.0 mi South 12.7 mph 24.2 mph N/A   Mostly Cloudy
3:35 PM 64.4 °F 55.4 °F 73% 29.82 in 10.0 mi South 10.4 mph 19.6 mph N/A   Mostly Cloudy
3:55 PM 64.4 °F 55.4 °F 73% 29.82 in 10.0 mi South 6.9 mph 18.4 mph N/A   Overcast
4:15 PM 62.6 °F 57.2 °F 82% 29.81 in 10.0 mi South 11.5 mph 17.3 mph N/A   Overcast
4:35 PM 62.6 °F 57.2 °F 82% 29.81 in 10.0 mi South 10.4 mph 16.1 mph N/A   Overcast
4:55 PM 62.6 °F 57.2 °F 82% 29.80 in 10.0 mi South 5.8 mph - N/A   Overcast
5:15 PM 62.6 °F 57.2 °F 82% 29.80 in 10.0 mi South 6.9 mph - N/A   Overcast
5:35 PM 62.6 °F 57.2 °F 82% 29.79 in 10.0 mi South 6.9 mph - N/A   Overcast
5:55 PM 62.6 °F 57.2 °F 82% 29.79 in 10.0 mi South 6.9 mph - N/A   Overcast
6:15 PM 62.6 °F 57.2 °F 82% 29.78 in 10.0 mi South 8.1 mph 17.3 mph N/A   Overcast
6:35 PM 62.6 °F 57.2 °F 82% 29.78 in 10.0 mi South 6.9 mph - N/A   Mostly Cloudy
6:55 PM 62.6 °F 57.2 °F 82% 29.78 in 10.0 mi South 6.9 mph - N/A   Mostly Cloudy
7:15 PM 62.6 °F 57.2 °F 82% 29.78 in 10.0 mi South 8.1 mph - N/A   Overcast
7:35 PM 62.6 °F 57.2 °F 82% 29.79 in 10.0 mi South 8.1 mph - N/A   Overcast
7:55 PM 62.6 °F 57.2 °F 82% 29.78 in 10.0 mi South 8.1 mph - N/A   Overcast
8:15 PM 62.6 °F 57.2 °F 82% 29.78 in 10.0 mi South 6.9 mph - N/A   Overcast
8:35 PM 62.6 °F 57.2 °F 82% 29.78 in 10.0 mi South 8.1 mph - N/A   Overcast
8:55 PM 62.6 °F 57.2 °F 82% 29.76 in 10.0 mi South 8.1 mph - N/A   Overcast
9:15 PM 62.6 °F 59.0 °F 88% 29.76 in 10.0 mi South 8.1 mph - N/A   Overcast
9:35 PM 62.6 °F 59.0 °F 88% 29.76 in 10.0 mi South 6.9 mph - N/A   Overcast
9:55 PM 64.4 °F 60.8 °F 88% 29.76 in 10.0 mi South 9.2 mph - N/A   Overcast
10:15 PM 64.4 °F 60.8 °F 88% 29.76 in 10.0 mi South 9.2 mph 17.3 mph N/A   Overcast
10:35 PM 64.4 °F 60.8 °F 88% 29.75 in 10.0 mi South 8.1 mph 16.1 mph N/A   Overcast
10:55 PM 64.4 °F 60.8 °F 88% 29.75 in 10.0 mi South 9.2 mph 16.1 mph N/A   Overcast
11:15 PM 64.4 °F 60.8 °F 88% 29.74 in 10.0 mi South 9.2 mph - N/A   Overcast
11:35 PM 64.4 °F 60.8 °F 88% 29.73 in 10.0 mi South 9.2 mph - N/A   Overcast
11:55 PM 64.4 °F 60.8 °F 88% 29.73 in 10.0 mi South 8.1 mph - N/A   Overcast